Regional Weather Roundup
Issued by NWS Jackson, KY

Home | Current Version | Previous Version | Text Only | Print | Product List | Glossary Off
Versions: 1 2 3 4 5 6 7 8 9 10 11 12 13 14 15 16 17 18 19 20 21 22 23 24 25 26 27 28 29 30 31 32 33 34 35 36 37 38 39 40 41 42 43 44 45 46 47 48 49

000
ASUS43 KJKL 280410
RWRJKL

EAST KENTUCKY HOURLY WEATHER ROUNDUP
NATIONAL WEATHER SERVICE JACKSON KY
1200 AM EDT FRI AUG 28 2015

NOTE: "FAIR" INDICATES FEW OR NO CLOUDS BELOW 12,000 FEET WITH
NO SIGNIFICANT WEATHER AND/OR OBSTRUCTIONS TO VISIBILITY.

* THESE REPORTS ARE NOT UNDER NWS QUALITY CONTROL AND MAY NOT
  REPORT WEATHER SUCH AS PRECIPITATION AND FOG.

KYZ079-080-083-085-087-088-110-112-115-119-120-280500
...EASTERN KENTUCKY...

CITY           SKY/WX    TMP DP  RH WIND       PRES   REMARKS
JACKSON        CLEAR     61  54  77 CALM      30.17F
LONDON         CLEAR     64  54  69 CALM      30.16F
SOMERSET*      CLEAR     63  54  72 NE5       30.16S
MONTICELLO*    CLEAR     59  57  92 CALM      30.17F
WILLIAMSBURG*  CLEAR     59  59 100 CALM      30.16S
MIDDLESBORO*   MOCLDY    63  60  91 CALM      30.15F
HARLAN APT*      N/A     61  57  88 MISG      30.17F
HAZARD APT*    CLEAR     59  59 100 CALM      30.17F
BLACK MTN*       N/A     57  55  94 CALM        N/A
PIKEVILLE APT* CLEAR     63  57  82 NE5       30.18S
BIG SANDY*     CLEAR     59  57  96 CALM      30.17S
MOREHEAD APT*  CLOUDY    63  54  72 CALM      30.19S
$$

KYZ035-036-041-042-044-050-067-078-099-280500
...CENTRAL KENTUCKY...

CITY           SKY/WX    TMP DP  RH WIND       PRES   REMARKS
MT STERLING*   CLEAR     55  55 100 CALM      30.18F
FLEMING/MASON* CLEAR     61  55  82 E5        30.17F
DANVILLE*      CLEAR     61  54  77 E3        30.17F
RICHMOND*      CLEAR     59  54  82 CALM      30.16S
LEXINGTON      CLEAR     64  54  69 E7        30.15F
FRANKFORT      CLEAR     61  55  81 E5        30.13F
$$

KYZ091>093-OHZ055-061-077-WVZ005-015-034-035-042-280500
...SOUTHERN OHIO/WEST VIRGINIA...

CITY           SKY/WX    TMP DP  RH WIND       PRES   REMARKS
COVINGTON      PTCLDY    63  56  78 SE3       30.15F
COLUMBUS       CLEAR     61  55  81 CALM      30.16F
DAYTON         CLEAR     61  56  83 NE6       30.16F
WILMINGTON     CLEAR     57  54  89 SE3       30.16F
HUNTINGTON     CLEAR     60  56  86 CALM      30.16F
CHARLESTON     CLEAR     59  57  93 CALM      30.17S
PINEVILLE*     MOCLDY    58  58 100 MISG      30.24R
BECKLEY        PTCLDY    57  53  86 CALM      30.22S
BLUEFIELD      PTCLDY    63  54  72 E3        30.23S
$$

VAZ002-007-008-TNZ017-027-036-066-071-280500
...SOUTHWEST VIRGINIA/EAST TENNESSEE...

CITY           SKY/WX    TMP DP  RH WIND       PRES   REMARKS
WISE*          MOCLDY    63  54  72 CALM      30.23S
JONESVILLE*    MOCLDY    63  61  94 CALM      30.18S
ABINGDON*      CLEAR     63  58  84 CALM      30.18S
BRISTOL        PTCLDY    67  58  72 CALM      30.15S
KNOXVILLE      MOCLDY    71  60  68 E6        30.11
OAK RIDGE      PTCLDY    70  58  65 E3        30.13S
CROSSVILLE     CLEAR     65  56  72 NE3       30.16S
NASHVILLE      CLEAR     70  56  61 E7        30.10F
$$

...KEY TO REMARKS...
VSB - VISIBILITY IN MILES
WCI - WIND CHILL INDEX
HX  - HEAT INDEX

$$



USA.gov is the U.S. government's official web portal to all federal, state and local government web resources and services.